Location: Aressy
(43.2833°N, 0.3167°W)
Time: 17:00:59
(UTC+00:00)

NOSS 3-1 (A) - Pass Details

Date: 28 January 2021
Orbit: 735 x 1477 km, 63.4° (Epoch: 02 March)

Event Time Altitude Azimuth Distance (km) Brightness Sun altitude
Rises 17:38:56 0° 325° (NW) 3,908 6.9 -6.1°
Reaches altitude 10° 17:41:32 10° 330° (NNW) 3,051 6.3 -6.5°
Maximum altitude 17:48:51 55° 47° (NE) 1,525 4.2 -7.8°
Drops below altitude 10° 17:57:19 10° 124° (SE) 3,514 6.0 -9.2°
Sets 18:00:29 0° 129° (SE) 4,539 6.6 -9.8°
